Home   Weather   Costa Mesa   Past weeks
Flag for USA

Past Weather in Costa Mesa, California, USA — Yesterday and Last 2 Weeks

Now
76 °F

Scattered clouds.


Feels Like: 78 °F
Forecast: 74 / 59 °F
Wind: 8 mph from Southwest

Location: John Wayne Airport-Orange County Airport

Current Time: Oct 19, 2019 at 1:55:49 pm

Latest Report: Oct 19, 2019 at 12:53 pm


Visibility: 10 mi

Pressure: 29.90 "Hg

Humidity: 50%

Dew Point: 56 °F

Location of Costa MesaLocation

Past Weather in Costa Mesa — Graph

°F

Costa Mesa Temperature Yesterday

Maximum temperature yesterday: 76 °F (at 1:53 pm)
Minimum temperature yesterday: 62 °F (at 5:53 am)
Average temperature yesterday: 68 °F

High & Low Weather Summary for the Past Weeks

 TemperatureHumidityPressure
High89 °F (Oct 11, 12:53 pm)90% (Oct 8, 4:30 am)30.04 "Hg (Oct 8, 4:30 am)
Low58 °F (Oct 6, 6:53 am)6% (Oct 11, 10:53 am)29.76 "Hg (Oct 17, 4:53 pm)
Average69 °F60%29.89 "Hg
* Reported Oct 4 11:53 am — Oct 19 11:53 am, Costa Mesa. Weather by CustomWeather, © 2019

Note: Actual official high and low records may vary slightly from our data, if they occured in-between our weather recording intervals... More about our weather records

Advertising

Costa Mesa Weather History for the Previous 24 Hours

Scroll right to see more
 ConditionsComfort  
Time TempWeatherWind HumidityBarometerVisibility
11:53 am
Sat, Oct 19
75 °FPassing clouds.10 mph50%29.92 "Hg10 mi
10:53 am73 °FSunny.5 mph48%29.94 "Hg10 mi
9:53 am70 °FSunny.No wind57%29.94 "Hg10 mi
8:53 am66 °FSunny.No wind54%29.94 "Hg10 mi
7:53 am62 °FSunny.5 mph60%29.91 "Hg10 mi
6:53 am59 °FClear.3 mph67%29.90 "Hg10 mi
5:53 am59 °FClear.No wind69%29.88 "Hg10 mi
4:53 am60 °FClear.No wind69%29.88 "Hg10 mi
3:53 am61 °FClear.No wind65%29.88 "Hg10 mi
2:53 am60 °FClear.3 mph67%29.89 "Hg10 mi
1:53 am63 °FClear.No wind58%29.88 "Hg10 mi
12:53 am64 °FClear.No wind58%29.88 "Hg10 mi
11:53 pm
Fri, Oct 18
64 °FClear.3 mph68%29.89 "Hg10 mi
10:53 pm65 °FClear.No wind68%29.89 "Hg10 mi
9:53 pm67 °FClear.3 mph66%29.89 "Hg9 mi
8:53 pm67 °FClear.No wind63%29.88 "Hg10 mi
7:53 pm68 °FClear.5 mph53%29.88 "Hg10 mi
6:53 pm70 °FPassing clouds.3 mph49%29.87 "Hg10 mi
5:53 pm72 °FPassing clouds.5 mph46%29.87 "Hg10 mi
4:53 pm74 °FPassing clouds.8 mph48%29.87 "Hg10 mi
3:53 pm76 °FSunny.7 mph45%29.87 "Hg10 mi
2:53 pm76 °FSunny.9 mph50%29.88 "Hg10 mi
1:53 pm76 °FSunny.9 mph52%29.88 "Hg10 mi
Weather by CustomWeather, © 2019

See weather overview